Flag for Russia Weather past 2 weeks in Kazan, Russia

Now
30 °F

Sunny.


Feels Like: 18 °F
Forecast: 17 / 32 °F
Wind: 20 mph from South

Location: Kazan'

Current Time: Mar 30, 2015 at 3:57:31 PM

Latest Report: Mar 30, 2015 at 3:30 PM


Visibility: 10 mi

Pressure: 30.54 "Hg

Humidity: 55%

Dew point: 16 °F

Location of KazanLocation

Historic Weather in Kazan — Graph

°F

Kazan temperature yesterday

Maximum temperature yesterday: 30 °F (at 2:00 PM)
Minimum temperature yesterday: 14 °F (at 5:30 AM)
Average temperature yesterday: 23 °F

Past Weeks' High & Low Weather Summary

 TemperatureHumidityPressure
High45 °F (Mar 19, 12:30 PM)100% (Mar 17, 11:00 PM)30.89 "Hg (Mar 17, 11:00 PM)
Low10 °F (Mar 24, 4:30 AM)32% (Mar 28, 1:00 PM)29.50 "Hg (Mar 22, 3:30 AM)
Average28 °F71%30.32 "Hg
* Reported Mar 15 2:00 PM — Mar 30 2:30 PM, Kazan, Weather by CustomWeather, © 2015

Note: Actual official high and low records may vary slightly from our data, if they occured in-between our weather recording intervals... More about our weather records

Advertising

Kazan weather history for previous 24 hours

 ConditionsComfort  
Time TempWeatherWind HumidityBarometerVisibility
2:30 PM
Mon, Mar 30
28 °FSunny.20 mph59%30.54 "Hg10 mi
2:00 PM28 °FSunny.20 mph64%30.54 "Hg10 mi
1:30 PM28 °FSunny.20 mph59%30.57 "Hg10 mi
1:00 PM28 °FSunny.20 mph55%30.57 "Hg10 mi
12:30 PM28 °FSunny.20 mph51%30.57 "Hg10 mi
12:00 PM28 °FSunny.20 mph51%30.60 "Hg10 mi
11:30 AM27 °FSunny.13 mph54%30.60 "Hg10 mi
11:00 AM27 °FSunny.15 mph54%30.60 "Hg10 mi
10:30 AM25 °FSunny.13 mph59%30.63 "Hg10 mi
10:00 AM25 °FSunny.17 mph59%30.63 "Hg10 mi
9:30 AM23 °FSunny.13 mph68%30.63 "Hg10 mi
9:00 AM21 °FSunny.13 mph68%30.63 "Hg10 mi
8:30 AM21 °FSunny.17 mph68%30.63 "Hg10 mi
8:00 AM19 °FSunny.15 mph73%30.63 "Hg10 mi
7:30 AM18 °FSunny.17 mph79%30.63 "Hg10 mi
7:00 AM18 °FSunny.15 mph73%30.63 "Hg10 mi
6:30 AM16 °FSunny.15 mph79%30.63 "Hg10 mi
5:30 AM16 °FClear.13 mph79%30.63 "Hg10 mi
5:00 AM16 °FClear.13 mph79%30.63 "Hg10 mi
4:30 AM16 °FClear.13 mph79%30.63 "Hg10 mi
4:00 AM18 °FClear.13 mph73%30.63 "Hg10 mi
3:30 AM18 °FClear.13 mph79%30.63 "Hg10 mi
3:00 AM18 °FClear.15 mph79%30.66 "Hg10 mi
2:00 AM18 °FClear.15 mph86%30.66 "Hg10 mi
1:30 AM19 °FClear.10 mph79%30.66 "Hg10 mi
1:00 AM19 °FClear.10 mph86%30.69 "Hg10 mi
12:00 AM19 °FClear.8 mph86%30.69 "Hg10 mi
11:30 PM
Sun, Mar 29
19 °FClear.10 mph86%30.69 "Hg10 mi
11:00 PM21 °FClear.10 mph80%30.69 "Hg10 mi
10:30 PM21 °FClear.8 mph86%30.72 "Hg10 mi
10:00 PM23 °FClear.13 mph80%30.72 "Hg10 mi
9:30 PM23 °FClear.15 mph80%30.72 "Hg10 mi
9:00 PM23 °FClear.10 mph80%30.72 "Hg10 mi
8:30 PM21 °FClear.10 mph80%30.72 "Hg10 mi
8:00 PM23 °FClear.6 mph74%30.72 "Hg10 mi
7:30 PM21 °FClear.6 mph86%30.74 "Hg10 mi
7:00 PM25 °FSunny.10 mph74%30.74 "Hg10 mi
6:30 PM25 °FSunny.13 mph74%30.74 "Hg10 mi
6:00 PM27 °FSunny.13 mph69%30.74 "Hg10 mi
5:30 PM27 °FSunny.13 mph74%30.74 "Hg10 mi
5:00 PM28 °FSunny.17 mph64%30.74 "Hg10 mi
4:30 PM28 °FSunny.15 mph69%30.77 "Hg10 mi
4:00 PM28 °FSunny.17 mph64%30.77 "Hg10 mi
3:30 PM30 °FSunny.20 mph64%30.77 "Hg10 mi
3:00 PM30 °FSunny.17 mph59%30.80 "Hg10 mi
Weather by CustomWeather, © 2015

See weather overviewHow to use our weather pages